www.pogodaiklimat.ru

Погода и климат >> Архив погоды >> Франция >> Ле-Люк


ПОГОДА в Ле-Люке

  • Прогноз погоды в Ле-Люке
  • Монитор погоды в Ле-Люке

АРХИВ ПОГОДЫ в Ле-Люке

Время (UTC), дата Ветер
(напр.,м/с)
 
Видим.   Явления Облачность Т
(С)
Тd
(С)
f
(%)
Тe
(С)
Тes
(С)
Комфортность P
(гПа)
Po
(гПа)
Тmin
(С)
Tmax
(С)
R
(мм)
R24
(мм)
S
(см)
16 17.08 ЮЗ 2-3
{4}
20 км н/о +31.9 +15.4 37 +34 +34 душно 1014.1 1004.9
17 17.08 З 3-4
{4}
20 км н/о +30.8 +15.2 39 +33 +33 душно 1014.0 1004.8
18 17.08 З 2
{7}
20 км н/о +29.4 +14.4 40 +31 +31 жарко 1014.5 1005.2 +18.0 +33.7 0
19 17.08 З 2-3
{3}
20 км н/о +26.6 +18.7 62 +32 +32 очень
душно
1014.8 1005.5
20 17.08 СЗ 1-1
{3}
20 км н/о +24.8 +19.8 74 +30 +30 душно 1015.6 1006.2
21 17.08 СЗ 1-1
{1}
20 км н/о +23.5 +19.8 80 +29 +29 душно 1015.9 1006.4 0
22 17.08 штиль 0-1
{1}
20 км н/о +22.0 +18.4 80 +27 +27 душно 1015.9 1006.4
23 17.08 штиль 0-1
{1}
20 км н/о +20.8 +17.0 79 +24 +24 комфорт 1016.3 1006.7
00 18.08 штиль 0-1
{1}
20 км н/о +20.6 +17.4 82 +24 +24 комфорт 1016.1 1006.5 0
01 18.08 В 1-1
{1}
20 км н/о +19.9 +16.9 83 +24 +24 комфорт 1015.8 1006.2
02 18.08 В 1-1
{1}
20 км н/о +20.4 +16.4 78 +25 +25 комфорт 1015.7 1006.1
03 18.08 С 1-2
{2}
20 км н/о +20.7 +18.3 86 +26 +26 душно 1015.4 1005.9 0
04 18.08 С 1-1
{1}
20 км н/о +20.9 +18.1 84 +27 +27 душно 1015.3 1005.8
05 18.08 В 1-1
{2}
20 км н/о +20.1 +17.5 85 +25 +25 комфорт 1015.6 1006.0
06 18.08 штиль 0
{2}
19 км н/о +21.5 +17.9 80 +26 +26 душно 1015.6 1006.1 +19.9 +29.3 0
07 18.08 С 1-1
{1}
20 км н/о +23.5 +17.9 71 +28 +28 душно 1015.7 1006.2
08 18.08 В 1-3
{3}
20 км н/о +25.1 +19.5 71 +30 +30 душно 1015.8 1006.4
09 18.08 ЮВ 2-3
{3}
20 км н/о +27.0 +18.0 58 +32 +32 очень
душно
1015.7 1006.4 0
10 18.08 В 2-3
{4}
20 км н/о +28.9 +18.4 53 +34 +34 очень
душно
1015.6 1006.3
11 18.08 В 2-4
{4}
20 км н/о +29.5 +18.0 50 +34 +34 очень
душно
1015.2 1005.9
12 18.08 В 2-4
{4}
20 км н/о +30.7 +18.8 49 +36 +36 очень
душно
1014.8 1005.6 0
13 18.08 ЮВ 3-5
{5}
20 км н/о +30.4 +17.8 47 +35 +35 очень
душно
1014.7 1005.5
14 18.08 ЮВ 3-4
{5}
20 км н/о +30.1 +18.2 49 +35 +35 очень
душно
1014.5 1005.3
15 18.08 ЮВ 3-4
{4}
20 км н/о +30.2 +17.6 47 +34 +34 очень
душно
1014.2 1005.0 0
16 18.08 В 3-4
{4}
20 км н/о +29.7 +17.5 48 +34 +34 очень
душно
1014.5 1005.2
17 18.08 В 3-4
{4}
20 км н/о +28.1 +18.2 55 +33 +33 очень
душно
1014.1 1004.8
18 18.08 В 2
{6}
20 км н/о +26.3 +17.9 60 +31 +31 душно 1014.3 1004.9 +21.6 +31.3 0
19 18.08 В 2-3
{3}
20 км н/о +24.5 +18.9 71 +29 +29 душно 1014.4 1005.0
20 18.08 В 1-2
{3}
20 км н/о +23.3 +19.0 77 +30 +30 очень
душно
1015.3 1005.8
21 18.08 СВ 1-1
{1}
20 км н/о +22.2 +19.4 84 +28 +28 душно 1015.7 1006.2 0
22 18.08 СВ 1-1
{1}
20 км н/о +21.7 +19.1 85 +27 +27 душно 1016.3 1006.8
23 18.08 СЗ 1-1
{1}
20 км н/о +20.4 +17.4 83 +25 +25 комфорт 1016.4 1006.8
00 19.08 Ю 1-2
{2}
20 км н/о +19.6 +17.2 86 +23 +23 комфорт 1016.4 1006.8 0
01 19.08 СЗ 1-1
{1}
20 км н/о +18.8 +17.1 90 +22 +22 комфорт 1016.1 1006.5
02 19.08 В 1-1
{1}
19 км н/о +17.8 +15.8 88 +19 +19 1016.2 1006.5
03 19.08 З 1-1
{1}
20 км н/о +18.2 +16.7 91 +20 +20 1015.8 1006.2 0
04 19.08 В 1-1
{1}
20 км н/о +17.3 +15.5 89 +19 +19 1015.9 1006.2
05 19.08 ЮЗ 1-1
{1}
20 км н/о +17.5 +15.8 90 +19 +19 1016.2 1006.5
06 19.08 В 1
{1}
20 км н/о +18.9 +16.5 86 +22 +22 комфорт 1016.4 1006.8 +17.1 +26.2 0
07 19.08 В 1-1
{1}
20 км н/о +21.2 +18.0 82 +25 +25 комфорт 1016.5 1007.0
08 19.08 Ю 1-1
{1}
18 км н/о +24.6 +19.4 73 +30 +30 очень
душно
1016.4 1007.0
09 19.08 З 1-1
{1}
20 км н/о +27.1 +18.7 60 +32 +32 очень
душно
1016.2 1006.9 0
10 19.08 З 1-2
{2}
19 км н/о +29.2 +18.6 53 +34 +34 очень
душно
1016.1 1006.8
11 19.08 С 2-4
{4}
20 км н/о +31.9 +18.8 46 +37 +37 очень
душно
1015.2 1006.0
12 19.08 В 2-4
{4}
19 км н/о +32.4 +19.3 46 +38 +38 очень
душно
1015.1 1005.9 0
13 19.08 В 3-4
{5}
20 км н/о +32.5 +19.7 47 +38 +38 очень
душно
1015.2 1006.0
14 19.08 ЮВ 3-4
{5}
20 км н/о +32.4 +18.2 43 +37 +37 очень
душно
1015.1 1005.9
15 19.08 ЮЗ 1-2
{4}
20 км н/о +32.1 +16.8 40 +35 +35 очень
душно
1015.1 1005.9 0
16 19.08 ЮЗ 2-3
{3}
20 км н/о +32.0 +17.1 41 +36 +36 очень
душно
1015.4 1006.2
17 19.08 З 2-3
{3}
20 км н/о +30.2 +17.0 45 +34 +34 очень
душно
1015.5 1006.2
18 19.08 С 2
{5}
20 км н/о +27.4 +20.5 66 +34 +34 очень
душно
1016.0 1006.7 +18.9 +33.3 0
19 19.08 С 1-2
{2}
20 км н/о +25.6 +21.1 76 +32 +32 очень
душно
1016.7 1007.3
20 19.08 СВ 1-2
{2}
20 км н/о +24.6 +21.1 81 +31 +31 очень
душно
1017.0 1007.6
21 19.08 СЗ 1-1
{2}
20 км н/о +23.9 +21.2 85 +30 +30 очень
душно
1017.5 1008.1 0
22 19.08 В 1-1
{1}
20 км н/о +23.9 +21.0 84 +30 +30 очень
душно
1017.4 1008.0
23 19.08 ЮВ 1-1
{1}
20 км н/о +23.1 +18.4 75 +29 +29 очень
душно
1017.2 1007.7
00 20.08 СЗ 1-1
{1}
20 км н/о +22.9 +18.7 77 +29 +29 очень
душно
1017.0 1007.5 0
01 20.08 В 1-1
{1}
20 км н/о +22.5 +18.3 77 +28 +28 душно 1016.7 1007.2
02 20.08 ЮВ 1-1
{1}
20 км н/о +22.1 +18.3 79 +27 +27 душно 1016.3 1006.8
03 20.08 В 1-1
{1}
20 км н/о +21.6 +18.2 81 +26 +26 душно 1016.1 1006.6 0
04 20.08 СЗ 1-1
{1}
20 км н/о +21.2 +18.2 83 +25 +25 комфорт 1016.2 1006.7
05 20.08 ЮЗ 1-1
{1}
20 км н/о +21.1 +18.5 85 +25 +25 комфорт 1016.8 1007.3
06 20.08 штиль 0
{2}
19 км н/о +22.5 +19.7 84 +29 +29 очень
душно
1016.9 1007.4 +20.9 +27.4 0
07 20.08 СЗ 1-1
{1}
19 км н/о +24.2 +20.1 78 +30 +30 очень
душно
1017.1 1007.7
08 20.08 СВ 1-2
{2}
19 км н/о +26.4 +20.5 70 +33 +33 очень
душно
1017.2 1007.8
09 20.08 В 1-3
{3}
20 км н/о +27.9 +19.9 62 +34 +34 очень
душно
1017.2 1007.9 0
10 20.08 В 1-3
{3}
19 км н/о +29.9 +18.7 51 +35 +35 очень
душно
1016.8 1007.5
11 20.08 С 1-2
{3}
20 км н/о +30.9 +18.3 47 +36 +36 очень
душно
1016.3 1007.1
12 20.08 В 2-4
{4}
20 км н/о +31.8 +19.8 49 +38 +38 очень
душно
1016.1 1006.9 0
13 20.08 ЮВ 3-4
{4}
20 км н/о +30.4 +20.0 54 +37 +37 очень
душно
1016.1 1006.9
14 20.08 ЮВ 3-5
{5}
20 км н/о +30.7 +20.6 55 +38 +38 очень
душно
1015.8 1006.6
15 20.08 ЮЗ 4-4
{22}
19 км н/о +31.6 +20.2 51 +38 +38 очень
душно
1015.7 1006.5 0
16 20.08 СВ 4-6
{11}
20 км н/о +29.7 +18.8 52 +35 +35 очень
душно
1016.2 1006.9
17 20.08 СВ 3-3
{9}
20 км н/о +28.2 +18.6 56 +33 +33 очень
душно
1016.1 1006.8
18 20.08 СЗ 2
{6}
20 км н/о +28.0 +15.6 47 +31 +31 душно 1016.1 1006.8 +22.5 +32.2 0
19 20.08 З 2-3
{3}
20 км н/о +27.3 +14.7 46 +30 +30 душно 1016.4 1007.0
20 20.08 З 2-3
{4}
20 км н/о +25.1 +14.8 53 +28 +28 жарко 1017.0 1007.6
21 20.08 ЮЗ 1-2
{4}
20 км н/о +23.7 +14.7 57 +26 +26 жарко 1017.2 1007.7 0
22 20.08 З 2-2
{2}
20 км н/о +23.4 +14.7 58 +27 +27 душно 1017.2 1007.7
23 20.08 З 1-2
{2}
20 км н/о +22.3 +14.4 61 +26 +26 жарко 1017.1 1007.6
00 21.08 ЮЗ 1-2
{2}
20 км н/о +20.6 +14.3 67 +24 +24 комфорт 1017.0 1007.4 0
01 21.08 ЮЗ 1-2
{2}
20 км н/о +20.2 +14.1 68 +24 +24 комфорт 1017.0 1007.4
02 21.08 СЗ 1-1
{2}
20 км н/о +19.2 +14.0 72 +22 +22 комфорт 1017.0 1007.4
03 21.08 штиль 0-1
{1}
20 км н/о +18.0 +13.9 77 +18 +18 1017.2 1007.5 0
04 21.08 штиль 0-1
{1}
20 км н/о +17.3 +13.4 78 +17 +17 1017.3 1007.6
05 21.08 СЗ 1-1
{1}
20 км н/о +17.0 +13.5 80 +19 +19 1017.8 1008.1
06 21.08 штиль 0
{1}
20 км н/о +18.6 +14.1 75 +19 +19 1018.1 1008.4 +16.9 +28.0 0
07 21.08 штиль 0-1
{1}
20 км н/о +20.8 +14.2 66 +23 +23 комфорт 1018.2 1008.6
08 21.08 В 1-1
{1}
20 км н/о +23.1 +15.2 61 +27 +27 душно 1018.0 1008.5
09 21.08 СВ 1-3
{3}
20 км н/о +26.4 +18.0 60 +31 +31 душно 1017.9 1008.5 0
10 21.08 В 1-3
{3}
20 км н/о +28.3 +18.7 56 +33 +33 очень
душно
1017.5 1008.2
11 21.08 В 4-6
{6}
20 км н/о +29.0 +18.1 52 +34 +34 очень
душно
1017.1 1007.8
12 21.08 В 3-5
{6}
20 км н/о +29.9 +17.0 46 +34 +34 очень
душно
1017.0 1007.7 0
13 21.08 В 4-6
{6}
19 км н/о +30.6 +15.1 39 +33 +33 душно 1017.1 1007.8
14 21.08 В 3-5
{5}
20 км н/о +30.7 +15.5 40 +33 +33 душно 1016.9 1007.6
15 21.08 ЮВ 3-4
{5}
20 км н/о +30.6 +15.5 40 +33 +33 душно 1016.7 1007.4 0
16 21.08 В 3-4
{4}
20 км н/о +30.0 +15.3 41 +33 +33 душно 1016.3 1007.0
17 21.08 ЮВ 3-3
{4}
20 км н/о +29.0 +14.8 42 +31 +31 жарко 1016.1 1006.8
18 21.08 ЮВ 2
{6}
20 км н/о +27.7 +17.5 54 +32 +32 очень
душно
1016.4 1007.1 +18.6 +30.9 0
19 21.08 В 1-1
{2}
20 км н/о +25.7 +17.6 61 +30 +30 душно 1017.3 1007.9
20 21.08 С 1-1
{1}
20 км н/о +24.2 +17.4 66 +28 +28 душно 1017.7 1008.2
21 21.08 В 1-1
{1}
20 км н/о +23.3 +19.0 77 +30 +30 очень
душно
1017.8 1008.3 0
22 21.08 штиль 0-1
{1}
20 км н/о +22.1 +17.0 73 +27 +27 душно 1017.9 1008.4
23 21.08 штиль 0
{1}
20 км н/о +21.0 +16.6 76 +24 +24 комфорт 1018.1 1008.5
00 22.08 штиль 0-1
{1}
20 км н/о +19.4 +16.1 81 +21 +21 комфорт 1018.0 1008.4 0
01 22.08 ЮЗ 1-1
{1}
20 км н/о +19.0 +15.7 81 +22 +22 комфорт 1017.8 1008.2
02 22.08 штиль 0
{1}
20 км н/о +18.2 +15.4 84 +18 +18 1017.8 1008.1
03 22.08 ЮЗ 1-1
{1}
20 км н/о +18.2 +16.2 88 +20 +20 1017.9 1008.2 0
04 22.08 СЗ 1-1
{1}
20 км н/о +17.3 +15.1 87 +19 +19 1017.9 1008.2
05 22.08 штиль 0
{1}
20 км н/о +17.7 +15.1 85 +18 +18 1018.4 1008.7
06 22.08 штиль 0
{1}
20 км н/о +18.6 +15.8 84 +19 +19 1018.5 1008.8 +16.9 +27.6 0
07 22.08 В 1-2
{2}
20 км н/о +20.0 +16.4 80 +24 +24 комфорт 1018.0 1008.4
08 22.08 З 1-2
{2}
20 км н/о +23.0 +16.8 68 +28 +28 душно 1018.9 1009.4
09 22.08 0 20 км н/о +26.5 +17.3 57 1019.2 1009.8 0
10 22.08 СВ 1-2
{2}
20 км н/о +28.2 +16.8 50 +32 +32 душно 1019.0 1009.7
11 22.08 ЮВ 3-4
{4}
19 км н/о +30.7 +17.4 45 +35 +35 очень
душно
1018.8 1009.5
12 22.08 ЮВ 3-5
{5}
20 км н/о +30.7 +17.0 44 +34 +34 очень
душно
1018.6 1009.3 0
13 22.08 В 3-4
{5}
20 км н/о +31.1 +17.4 44 +35 +35 очень
душно
1018.1 1008.9
14 22.08 ЮВ 3-4
{6}
20 км н/о +30.7 +18.4 48 +36 +36 очень
душно
1018.0 1008.7
15 22.08 ЮВ 2-3
{4}
20 км н/о +29.9 +18.7 51 +35 +35 очень
душно
1018.2 1008.9 0
16 22.08 В 1-3
{3}
20 км н/о +30.3 +16.7 44 +34 +34 очень
душно
1017.7 1008.4
17 22.08 ЮВ 2 20 км н/о +29.5 +17.7 49 +34 +34 очень
душно
1018.2 1008.9
18 22.08 ЮЗ 2
{9}
20 км н/о +27.5 +17.1 53 +31 +31 душно 1018.9 1009.5 +18.6 +32.2 0
19 22.08 З 2-3
{7}
20 км н/о +24.4 +14.2 53 +27 +27 жарко 1019.6 1010.1
20 22.08 ЮЗ 1-2
{4}
20 км н/о +22.1 +15.0 64 +26 +26 душно 1019.6 1010.0
21 22.08 ЮЗ 1-2
{2}
20 км н/о +22.0 +14.6 63 +25 +25 комфорт 1019.4 1009.8 0
22 22.08 З 1-2
{2}
20 км н/о +22.1 +14.7 63 +25 +25 комфорт 1019.6 1010.0
23 22.08 ЮЗ 1-2
{2}
20 км н/о +21.0 +14.6 67 +25 +25 комфорт 1019.7 1010.1
00 23.08 штиль 0-1
{2}
20 км н/о +19.7 +13.8 69 +21 +21 комфорт 1019.5 1009.9 0
01 23.08 ЮВ 1-1
{1}
20 км н/о +18.7 +14.0 74 +21 +21 комфорт 1019.6 1009.9
02 23.08 СЗ 1-1
{1}
20 км н/о +17.2 +13.3 78 +19 +19 1019.5 1009.8
03 23.08 З 1-1
{2}
20 км н/о +16.8 +13.1 79 +18 +18 1019.2 1009.5 0
04 23.08 ЮВ 1-1
{2}
20 км н/о +15.5 +12.4 82 +16 +16 1019.4 1009.6
05 23.08 СЗ 1-1
{1}
20 км н/о +15.6 +12.9 84 +17 +17 1019.7 1009.9
06 23.08 штиль 0
{2}
20 км н/о +17.1 +12.8 76 +17 +17 1019.8 1010.1 +15.4 +27.4 0
07 23.08 СВ 1-1
{1}
20 км н/о +21.8 +14.2 62 +25 +25 комфорт 1019.4 1009.8
08 23.08 З 1-1
{1}
20 км н/о +24.3 +14.1 53 +27 +27 жарко 1019.5 1010.0
09 23.08 ЮВ 1-2
{3}
20 км н/о +27.7 +13.2 41 +29 +29 жарко 1019.8 1010.4 0
10 23.08 В 2-2
{2}
20 км н/о +31.6 +14.7 36 +34 +34 душно 1019.1 1009.8
11 23.08 ЮВ 4-5
{6}
20 км н/о +31.3 +16.9 42 +35 +35 очень
душно
1018.6 1009.4
12 23.08 ЮВ 3-5
{6}
20 км н/о +31.2 +17.9 45 +35 +35 очень
душно
1018.4 1009.2 0
13 23.08 ЮВ 3-5
{5}
20 км н/о +30.8 +17.8 46 +35 +35 очень
душно
1018.3 1009.0
14 23.08 В 3-4
{5}
20 км н/о +30.2 +17.6 47 +34 +34 очень
душно
1018.2 1008.9
15 23.08 ЮВ 2-3
{4}
20 км н/о +29.2 +17.4 49 +33 +33 очень
душно
1018.4 1009.1 0
16 23.08 ЮВ 2-3
{4}
20 км н/о +27.9 +18.0 55 +32 +32 душно 1018.6 1009.3
17 23.08 ЮВ 1-2
{3}
20 км н/о +28.2 +17.1 51 +32 +32 душно 1018.4 1009.1
18 23.08 В 2
{5}
20 км н/о +27.0 +18.0 58 +32 +32 очень
душно
1018.7 1009.3 +17.1 +32.0 0
19 23.08 В 1-1
{2}
20 км н/о +25.9 +17.5 60 +30 +30 душно 1019.0 1009.6
20 23.08 штиль 0-1
{1}
20 км н/о +24.5 +17.7 66 +29 +29 душно 1019.5 1010.0
21 23.08 В 1-2
{2}
20 км н/о +23.3 +18.0 72 +29 +29 душно 1019.6 1010.1 0.0 0
22 23.08 В 1-1
{2}
20 км н/о +22.5 +18.3 77 +28 +28 душно 1019.6 1010.1 0.0
23 23.08 штиль 0-1
{1}
20 км н/о +22.2 +18.0 77 +27 +27 душно 1019.5 1010.0
00 24.08 З 1-1
{1}
20 км н/о +22.5 +17.8 75 +28 +28 душно 1019.3 1009.8 0.0 0
01 24.08 штиль 0-1
{1}
20 км н/о +22.3 +18.1 77 +27 +27 душно 1019.2 1009.7
02 24.08 Ю 1-1
{2}
20 км н/о +21.3 +17.9 81 +25 +25 комфорт 1019.1 1009.5
03 24.08 СЗ 1-1
{1}
19 км н/о +19.9 +16.9 83 +24 +24 комфорт 1019.0 1009.4 0
04 24.08 СВ 1-1
{1}
19 км н/о +19.1 +16.7 86 +22 +22 комфорт 1018.9 1009.3
05 24.08 З 1-1
{2}
18 км н/о +18.7 +16.7 88 +21 +21 комфорт 1019.1 1009.4
06 24.08 В 1
{2}
18 км н/о +19.9 +17.1 84 +24 +24 комфорт 1019.2 1009.6 +18.6 +27.0 0.0 0
07 24.08 штиль 0-1
{1}
19 км н/о +24.0 +18.4 71 +28 +28 душно 1019.1 1009.6
08 24.08 С 1-1
{1}
19 км н/о +26.7 +18.0 59 +31 +31 душно 1019.1 1009.7
09 24.08 С 1-1
{1}
20 км н/о +28.7 +17.6 51 +33 +33 очень
душно
1018.9 1009.6 0
10 24.08 ЮЗ 1-3
{3}
20 км н/о +30.6 +15.5 40 +33 +33 душно 1018.4 1009.1
11 24.08 ЮЗ 2-3
{4}
20 км н/о +31.9 +14.5 35 +34 +34 душно 1017.8 1008.6
12 24.08 Ю 1-2
{2}
20 км н/о +33.0 +14.6 33 +35 +35 душно 1017.2 1008.0 0
13 24.08 Ю 1-3
{3}
20 км н/о +31.6 +14.7 36 +34 +34 душно 1017.0 1007.8
14 24.08 Ю 2-4
{5}
20 км н/о +30.6 +15.1 39 +33 +33 душно 1017.0 1007.7
15 24.08 Ю 1 20 км н/о +30.4 +15.7 41 +33 +33 душно 1016.8 1007.5 0.0
16 24.08 З 1-2
{4}
20 км н/о +29.3 +16.1 45 +32 +32 душно 1017.0 1007.7
17 24.08 ЮЗ 1-2
{2}
20 км н/о +29.2 +15.7 44 +32 +32 душно 1016.6 1007.3

 

Местоположение метеостанции Ле-Люк (Франция): широта 43.38 долгота 6.38 высота над уровнем моря 82 м.

В архиве по умолчанию представлена погода в Ле-Люке за последнюю неделю. Архивные данные за месяц целиком и за предыдущие месяцы, начиная с января 2011 года, Вы можете получить, выбрав интересующий диапазон дат из раскрывающегося списка и нажав кнопку "Ввод!".


*Определитесь, кто Вы:
робот инопланетянин человек

Внимание! Время в таблицах - всемирное. Для получения местного времени необходимо прибавить поправку, которая равна 1 ч.

Смотрите также архив погоды в соседних городах и на ближайших метеорологических станциях:

Погода на Мысе Камара (Франция) (31 км)
Погода в Йере (Франция) (36 км)
Погода на Острове Леван (Франция) (40 км)
Погода в Тулоне (Франция) (48 км)
Погода в Каннах (Франция) (49 км)
Погода на Мысе Кере (Франция) (49 км)
Погода в Антибе (Франция) (64 км)
Погода в Ла-Сьоте (Франция) (68 км)
Погода в Ницце (Франция) (73 км)
Погода в Шато-Арну-Сент-Обане (Франция) (83 км)

Пояснения к столбцам:

Ветер - указаны скорость ветра в м/с - средняя за 10 мин, порывы в срок и между сроками (в фигурных скобках) и направление, откуда дует ветер: С - северный, СВ - северо-восточный, В - восточный, ЮВ - юго-восточный, Ю - южный, ЮЗ - юго-западный, З - западный, СЗ - северо-западный.
Видимость - горизонтальная дальность видимости в метрах или километрах. При видимости от 1 до 10 км при отсутствии осадков обычно наблюдается дымка, при ухудшении видимости до 1 км и менее - туман. В сухую погоду видимость может ухудшаться дымом, пылью или мглою.
Явления - указаны атмосферные явления, наблюдавшиеся в срок или в последний час перед сроком; фигурными скобками обозначены явления, наблюдавшиеся между сроками (за 1-3 часа до срока); квадратными скобками обозначены град или гололедные отложения с указанием их диаметра в мм.
Облачность - указаны через наклонную черту общая и нижняя облачность в баллах и высота нижней границы облаков в метрах; квадратными скобками обозначены формы облаков: Ci - перистые, Cs - перисто-слоистые, Cc - перисто-кучевые, Ac - высококучевые, As - высокослоистые, Sc - слоисто-кучевые, Ns - слоисто-дождевые, Cu - кучевые, Cb - кучево-дождевые. Подробнее классификацию облаков см. в Атласе облаков (PDF).
T - Температура воздуха - температура, измеренная на высоте 2 м над землей.
Td - Температура точки росы - температура, при понижении до которой содержащийся в воздухе водяной пар достигнет насыщения.
f - Относительная влажность воздуха - влажноcть воздуха, измеренная на высоте 2 м над землей.
Te - Эффективная температура - температура, которую ощущает одетый по сезону человек в тени. Характеристика душности погоды. При расчете учитывается влияние влажности воздуха и скорости ветра на теплоощущения человека.
Tes - Эффективная температура на солнце - температура, которую ощущает человек, с поправкой на солнечный нагрев. Характеристика знойности погоды. Зависит от высоты солнца над горизонтом, облачности и скорости ветра. Ночью, в пасмурную погоду, а также при ветре 12 м/с и более поправка равна нулю.
P - Атмосферное давление - приведенное к уровню моря атмосферное давление.
Po - Атмосферное давление - измеренное на уровне метеостанции атмосферное давление.
Tmin - Минимальная температура - минимум температуры воздуха на высоте 2 м над землей.
Tmax - Максимальная температура - максимум температуры воздуха на высоте 2 м над землей.
R - Количество осадков - Количество выпавших осадков за период времени, мм. При наведении курсора мыши на число - период времени, за который выпало указанное количество осадков.
R24 - Количество осадков - Количество выпавших осадков за 24 часа, мм.
S - Снежный покров - Высота снежного покрова, см. При наведении курсора мыши на число - состояние снежного покрова и степень покрытия местности в баллах.